STARLINK-32167 (60268 NORAD) Tracking and Keplerian Element Data

This shows tracking and keplerian element data for the satellite.

Feedback or suggestion? Click here.




ElementValue
Catalog60268
NameSTARLINK-32167
Epoch Orbit1312
Epoch Day286.67880165
Epoch Year2024
RAAN278.9222
Inclination53.1595
Eccentricity0.0001405
Argument of Perigee84.3049
Mean Anonmoly275.8113
Mean Motion15.34228172
Decay Rate-1.278E-05
L11 60268U 24131P 24286.67880165 -.00001278 00000+0 -26859-4 0 9999
L22 60268 53.1595 278.9222 0001405 84.3049 275.8113 15.34228172 13121



Live tracking and technical data element details for STARLINK-32167 (NORAD 60268). STARLINK-32167 can be tracked NOW for your location showing map with azimuth and elevation plus other details from your city location.







IsCatalogInMostPopularTable: catalog: 60268, numindb: 10
Update: records affected: 1



GetName: 60268 STARLINK-32167

Hit Count: updated at: Thu, 23 Jan 2025 13:23:57 GMT